Notices

What's New in latest Release from April 7th, 2021:

- Updated Glossary, including Speed of Maximum Gust, and Total Hourly Precipitation

- Updated national and regional climate services offices contacts and prices information

- Addition of station inventory lists for 1981-2010, 1971-2000, and 1961-1990 Normals.

If you haven't already, please take our survey and provide feedback about our website: https://eccc.sondage-survey.ca/f/LanguageSelection.aspx?s=442ca660-fcf1-47c0-95a9-59707d6fd709

Hourly Data Report for November 25, 2019

PINAWA
MANITOBA
Current Station Operator: ECCC - MSC

50°10'38.020" N
96°03'53.000" W
268.00 m
503B1ER
71448
WEA

Download Data

Hourly Data (November 2019)
Hourly Data Report for November 25, 2019
TIME
LST
Temp Definition
°C
Dew Point Definition
°C
Rel Hum Definition
%
Precip. Amount Definition
mm

Wind Dir Definition
10's deg

Wind Spd Definition
km/h
Visibility Definition
km
Stn Press Definition
kPa
Hmdx Definition


Wind Chill Definition


Weather Definition


00:00 0.9 LegendMM LegendMM 0.0 9 6   96.16     LegendNANA
01:00 1.1 LegendMM LegendMM 0.0 9 11   96.15     LegendNANA
02:00 0.8 LegendMM LegendMM 0.0 9 6   96.13     LegendNANA
03:00 0.6 LegendMM LegendMM 0.5 6 9   96.15     LegendNANA
04:00 0.4 LegendMM LegendMM 0.8 5 11   96.16     LegendNANA
05:00 0.2 LegendMM LegendMM 0.0 6 11   96.20     LegendNANA
06:00 0.0 LegendMM LegendMM 0.0 5 10   96.26   -3 LegendNANA
07:00 -0.1 LegendMM LegendMM 0.0 2 7   96.32   -3 LegendNANA
08:00 -0.4 LegendMM LegendMM 0.0 2 8   96.38   -3 LegendNANA
09:00 -0.6 LegendMM LegendMM 0.0 2 9   96.47   -4 LegendNANA
10:00 -0.2 LegendMM LegendMM 0.0 1 9   96.56   -3 LegendNANA
11:00 0.1 LegendMM LegendMM 0.0 36 9   96.64     LegendNANA
12:00 0.1 LegendMM LegendMM 0.0 35 8   96.72     LegendNANA
13:00 0.3 LegendMM LegendMM 0.0 35 10   96.75     LegendNANA
14:00 0.5 LegendMM LegendMM 0.0 36 9   96.83     LegendNANA
15:00 0.3 LegendMM LegendMM 0.0 34 10   96.88     LegendNANA
16:00 0.2 LegendMM LegendMM 0.0 1 6   96.96     LegendNANA
17:00 0.1 LegendMM LegendMM 0.0 33 5   97.05     LegendNANA
18:00 -0.4 LegendMM LegendMM 0.0 1 5   97.16   -2 LegendNANA
19:00 -0.8 LegendMM LegendMM 0.0 34 4   97.24   -2 LegendNANA
20:00 -0.8 LegendMM LegendMM 0.0 36 5   97.31   -2 LegendNANA
21:00 -1.0 LegendMM LegendMM 0.0 36 4   97.40   -2 LegendNANA
22:00 -1.1 LegendMM LegendMM 0.0 3 4   97.45   -2 LegendNANA
23:00 -1.2 LegendMM LegendMM 0.0 34 3   97.52   -2 LegendNANA

Notes on Data Quality.

Legend

  • E = Estimated
  • M = Missing
  • NA = Not Available*
  • [empty] = Indicates an unobserved value
Date modified: